Regional Weather Roundup
Issued by NWS

Home | Current Version | Previous Version | Text Only | Print | Product List | Glossary On
Versions: 1 2 3 4 5 6 7 8 9 10 11 12 13 14 15 16 17 18 19 20 21 22 23 24 25 26 27 28 29 30 31 32 33 34 35 36 37 38 39 40 41 42 43 44 45 46 47 48 49 50
000
ASUS43 KOAX 251402
RWRNE

WEATHER ROUNDUP FOR NEBRASKA
NATIONAL WEATHER SERVICE OMAHA NE
800 AM CST SUN FEB 25 2018

NOTES: SATELLITE DATA IS BEING USED TO AUGMENT CLOUD COVER ABOVE
       12000 FEET.
       "FAIR" INDICATES FEW OR NO CLOUDS BELOW 12,000 FEET WITH NO
       SIGNIFICANT WEATHER AND/OR OBSTRUCTIONS TO VISIBILITY.


NEZ001>004-019>022-054>056-251500-
NEBRASKA PANHANDLE

CITY           SKY/WX    TMP DP  RH WIND       PRES   REMARKS
SCOTTSBLUFF    MOCLDY    27  13  55 W20       29.83R WCI  13
ALLIANCE       PTCLDY    14   8  77 CALM      29.80R
CHADRON        PTCLDY    -2  -5  87 W7        29.82R WCI -15
GORDON         FAIR       8   2  76 W5        29.78S WCI   0
KIMBALL        MOCLDY    18   7  62 W10       29.84R WCI   7
SIDNEY         CLEAR     15   6  67 NW12      29.85R WCI   2
$$

NEZ057>060-069>072-079>082-251500-
SOUTHWEST NEBRASKA

CITY           SKY/WX    TMP DP  RH WIND       PRES   REMARKS
NORTH PLATTE   PTCLDY     9   3  77 CALM      29.90R
IMPERIAL       CLEAR     18  12  77 W9        29.90R WCI   7
LEXINGTON      CLEAR     16  11  82 NW5       29.92R WCI   9
MCCOOK         CLEAR     24  19  81 W8        29.93R WCI  15
OGALLALA       CLEAR     19  12  74 W9        29.87R WCI   8
$$

NEZ005>010-023>029-035>040-094-251500-
NORTH CENTRAL NEBRASKA

CITY           SKY/WX    TMP DP  RH WIND       PRES   REMARKS
VALENTINE      PTCLDY    15   7  70 W3        29.82R
AINSWORTH      MOCLDY    17  10  76 W6        29.82R WCI   8
BROKEN BOW     CLEAR     20   9  62 W13       29.87R WCI   7
O`NEILL        PTCLDY    19  10  68 W9        29.85R WCI   9
ORD            CLEAR     14   9  80 CALM      29.88R
THEDFORD       MOCLDY    23  14  70 W6        29.85R WCI  15
$$

NEZ041-046>049-061>064-073>077-083>087-251500-
SOUTH CENTRAL NEBRASKA

CITY           SKY/WX    TMP DP  RH WIND       PRES   REMARKS
GRAND ISLAND   CLEAR     23  14  68 W13       29.92R WCI  11
AURORA         PTCLDY    19  14  78 SW9       29.92R WCI   9
HASTINGS       CLEAR     19  13  77 SW7       29.94R WCI  10
HEBRON         CLOUDY    25  19  78 W6        29.96S WCI  18
HOLDREGE       CLEAR     23  15  73 W7        29.92S WCI  15
KEARNEY        CLEAR     21  14  74 W8        29.93R WCI  11
YORK           CLOUDY    19  16  86 W8        29.93R WCI   9
$$

NEZ011>018-030>034-042>045-251500-
NORTHEAST NEBRASKA

CITY           SKY/WX    TMP DP  RH WIND       PRES   REMARKS
NORFOLK        CLEAR     21  10  62 W7        29.88R WCI  12
ALBION         CLEAR     17  10  71 NW3       29.89S
BLAIR          CLEAR     22  15  75 S5        29.91R WCI  16
COLUMBUS       CLEAR     19  14  81 W10       29.93R WCI   7
FREMONT        CLEAR     24  15  68 SW10      29.92R WCI  13
TEKAMAH        CLEAR     21  13  71 SW12      29.90R WCI   9
WAYNE          CLEAR     19  10  66 SW10      29.88R WCI   8
$$

NEZ050>053-065>068-078-088>093-251500-
SOUTHEAST NEBRASKA

CITY           SKY/WX    TMP DP  RH WIND       PRES   REMARKS
LINCOLN        PTCLDY    24  16  71 SW7       29.96R WCI  16
OMAHA EPPLEY   PTCLDY    23  16  74 S7        29.94R WCI  15
BEATRICE       PTCLDY    23  19  83 CALM      29.96R
FALLS CITY     CLEAR     27  20  75 W5        29.97R WCI  22
NEBRASKA CITY  CLEAR     26  22  84 W15       29.94R WCI  14
PLATTSMOUTH    PTCLDY    26  19  74 SW13      29.93R WCI  14
$$

NEZ044-045-051>053-067-251500-
OMAHA AREA

CITY           SKY/WX    TMP DP  RH WIND       PRES   REMARKS
OMAHA EPPLEY   PTCLDY    23  16  74 S7        29.94R WCI  15
BLAIR          CLEAR     22  15  75 S5        29.91R WCI  16
FREMONT        CLEAR     24  15  68 SW10      29.92R WCI  13
MILLARD        CLEAR     24  17  74 CALM      29.94R
OFFUTT AFB     PTCLDY    24  17  76 W5        29.94R WCI  18
PLATTSMOUTH    PTCLDY    26  19  74 SW13      29.93R WCI  14
WAHOO          FAIR      24  16  69 SW14      29.92R WCI  12
$$



USA.gov is the U.S. government's official web portal to all federal, state and local government web resources and services.